Orange, MA

4:22 AM EDT on October 22, 2017 (GMT -0400)
Orange Municipal

Weather History for KORE - September, 2013

Change the Weather History Date:

Sunday, September 8, 2013

  Actual Average Record
Temperature  
Mean Temperature 57 °F -  
Max Temperature 70 °F 73 °F 91 °F (2015)
Min Temperature 45 °F 50 °F 44 °F (2000)
Degree Days  
Heating Degree Days 8    
Growing Degree Days 7 (Base 50)    
Moisture  
Dew Point 51 °F    
Average Humidity 76    
Maximum Humidity 100    
Minimum Humidity 31    
Precipitation  
Precipitation 0.02 in - - ()
Sea Level Pressure  
Sea Level Pressure 29.87 in    
Wind  
Wind Speed 3 mph (NNW)    
Max Wind Speed 18 mph    
Max Gust Speed 28 mph    
Visibility 10 miles    
Events Rain    
Averages and records for this station are not official NWS values.
T = Trace of Precipitation, MM = Missing Value Source: NWS Daily Summary

Daily Weather History Graph

Daily Weather History Graph

Search for Another Location

Airport or City:

Trip Planner

Search our weather history database for the weather conditions in past years. The results will help you decide how hot, cold, wet, or windy it might be!

Date:

Astronomy

Sep. 08, 2013 Rise Set
Actual Time 6:21 AM EDT 7:10 PM EDT
Civil Twilight 5:53 AM EDT 7:39 PM EDT
Nautical Twilight 5:19 AM EDT 8:13 PM EDT
Astronomical Twilight 4:43 AM EDT 8:48 PM EDT
Moon 9:41 AM EDT (9/8) 8:38 PM EDT (9/8)
Length of Visible Light 13h 46m
Length of Day
12h 49m
Waxing Crescent, 11% of the Moon is Illuminated
Sep 8
Waxing Crescent
Sep 12
First Quarter
Sep 19
Full
Sep 26
Last Quarter
Oct 4
New

Hourly Weather History & Observations

Time (EDT) Temp. Windchill Dew Point Humidity Pressure Visibility Wind Dir Wind Speed Gust Speed Precip Events Conditions
12:52 AM 61.0 °F - 57.9 °F 90% 29.87 in 10.0 mi Calm Calm - 0.01 in Rain Light Rain
1:52 AM 60.1 °F - 57.9 °F 93% 29.85 in 10.0 mi Calm Calm - 0.00 in Rain Light Rain
2:52 AM 59.0 °F - 57.9 °F 96% 29.83 in 10.0 mi Calm Calm - 0.00 in   Scattered Clouds
3:14 AM 57.2 °F - 57.2 °F 100% 29.82 in 7.0 mi Calm Calm - N/A   Mostly Cloudy
3:23 AM 57.2 °F - 57.2 °F 100% 29.82 in 10.0 mi Calm Calm - N/A   Mostly Cloudy
3:52 AM 57.9 °F - 57.0 °F 97% 29.81 in 10.0 mi Calm Calm - N/A   Overcast
4:04 AM 57.2 °F - 57.2 °F 100% 29.82 in 10.0 mi Calm Calm - N/A   Overcast
4:23 AM 59.0 °F - 57.2 °F 94% 29.81 in 2.5 mi Calm Calm - N/A   Overcast
4:30 AM 59.0 °F - 57.2 °F 94% 29.81 in 7.0 mi Calm Calm - N/A   Overcast
4:47 AM 59.0 °F - 57.2 °F 94% 29.80 in 10.0 mi Calm Calm - N/A   Overcast
4:52 AM 59.0 °F - 57.9 °F 96% 29.80 in 10.0 mi North 3.5 mph - N/A   Overcast
5:52 AM 59.0 °F - 57.0 °F 93% 29.79 in 10.0 mi Calm Calm - N/A   Mostly Cloudy
6:52 AM 59.0 °F - 57.0 °F 93% 29.81 in 10.0 mi Calm Calm - N/A   Overcast
7:43 AM 60.8 °F - 57.2 °F 88% 29.80 in 10.0 mi Calm Calm - N/A   Mostly Cloudy
7:52 AM 61.0 °F - 57.9 °F 90% 29.80 in 10.0 mi Calm Calm - N/A   Overcast
8:52 AM 64.0 °F - 57.9 °F 80% 29.80 in 10.0 mi Calm Calm - N/A   Overcast
9:52 AM 66.0 °F - 59.0 °F 78% 29.80 in 10.0 mi West 4.6 mph - N/A   Mostly Cloudy
10:19 AM 69.8 °F - 59.0 °F 68% 29.80 in 10.0 mi WNW 12.7 mph 18.4 mph N/A   Mostly Cloudy
10:52 AM 68.0 °F - 59.0 °F 73% 29.81 in 10.0 mi West 6.9 mph - N/A   Overcast
11:52 AM 64.0 °F - 55.0 °F 73% 29.83 in 10.0 mi NNW 15.0 mph - 0.01 in   Overcast
12:20 PM 64.4 °F - 51.8 °F 64% 29.84 in 10.0 mi NW 13.8 mph 23.0 mph N/A   Overcast
12:52 PM 66.9 °F - 48.0 °F 51% 29.84 in 10.0 mi NNW 18.4 mph 27.6 mph N/A   Partly Cloudy
1:52 PM 69.1 °F - 44.1 °F 40% 29.86 in 10.0 mi NNW 17.3 mph 24.2 mph N/A   Clear
2:52 PM 69.1 °F - 39.9 °F 35% 29.88 in 10.0 mi North 15.0 mph 25.3 mph N/A   Clear
3:52 PM 68.0 °F - 39.9 °F 36% 29.89 in 10.0 mi North 10.4 mph - N/A   Clear
4:52 PM 68.0 °F - 39.9 °F 36% 29.91 in 10.0 mi North 11.5 mph - N/A   Partly Cloudy
5:52 PM 64.0 °F - 33.1 °F 31% 29.94 in 10.0 mi North 13.8 mph 24.2 mph N/A   Clear
6:52 PM 61.0 °F - 37.9 °F 42% 29.98 in 10.0 mi North 4.6 mph - N/A   Clear
7:52 PM 54.0 °F - 42.1 °F 64% 30.02 in 10.0 mi Calm Calm - N/A   Clear
8:52 PM 50.0 °F - 42.1 °F 74% 30.06 in 10.0 mi Calm Calm - N/A   Clear
9:52 PM 48.9 °F - 42.1 °F 77% 30.09 in 10.0 mi Calm Calm - N/A   Clear
10:52 PM 45.0 °F - 42.1 °F 90% 30.12 in 10.0 mi Calm Calm - N/A   Clear
11:52 PM 45.0 °F 43.5 °F 42.1 °F 90% 30.12 in 10.0 mi East 3.5 mph - N/A   Clear